Year,Month,Day,Hour,Minute,Value (Times are PST for temperature in C)
2017,09,03,00,00,21.20
2017,09,03,00,01,21.20
2017,09,03,00,02,21.20
2017,09,03,00,03,21.20
2017,09,03,00,04,21.20
2017,09,03,00,05,21.30
2017,09,03,00,06,21.30
2017,09,03,00,07,21.30
2017,09,03,00,08,21.30
2017,09,03,00,09,21.30
2017,09,03,00,10,21.20
2017,09,03,00,11,21.20
2017,09,03,00,12,21.20
2017,09,03,00,13,21.20
2017,09,03,00,14,21.20
2017,09,03,00,15,21.20
2017,09,03,00,16,21.20
2017,09,03,00,17,21.20
2017,09,03,00,18,21.20
2017,09,03,00,19,21.20
2017,09,03,00,20,21.10
2017,09,03,00,21,21.10
2017,09,03,00,22,21.10
2017,09,03,00,23,21.10
2017,09,03,00,24,21.10
2017,09,03,00,25,21.10
2017,09,03,00,26,21.00
2017,09,03,00,27,21.00
2017,09,03,00,28,21.00
2017,09,03,00,29,21.00
2017,09,03,00,30,21.00
2017,09,03,00,31,20.90
2017,09,03,00,32,20.90
2017,09,03,00,33,20.90
2017,09,03,00,34,20.90
2017,09,03,00,35,20.90
2017,09,03,00,36,20.90
2017,09,03,00,37,20.90
2017,09,03,00,38,21.00
2017,09,03,00,39,21.00
2017,09,03,00,40,21.00
2017,09,03,00,41,21.00
2017,09,03,00,42,21.00
2017,09,03,00,43,21.00
2017,09,03,00,44,20.90
2017,09,03,00,45,20.90
2017,09,03,00,46,21.00
2017,09,03,00,47,21.00
2017,09,03,00,48,21.00
2017,09,03,00,49,21.00
2017,09,03,00,50,21.00
2017,09,03,00,51,21.00
2017,09,03,00,52,21.00
2017,09,03,00,53,21.00
2017,09,03,00,54,21.00
2017,09,03,00,55,21.00
2017,09,03,00,56,21.00
2017,09,03,00,57,21.00
2017,09,03,00,58,21.00
2017,09,03,00,59,21.00
2017,09,03,01,00,20.90
2017,09,03,01,01,20.90
2017,09,03,01,02,20.90
2017,09,03,01,03,20.90
2017,09,03,01,04,20.90
2017,09,03,01,05,20.90
2017,09,03,01,06,20.90
2017,09,03,01,07,20.90
2017,09,03,01,08,20.90
2017,09,03,01,09,20.90
2017,09,03,01,10,20.90
2017,09,03,01,11,20.90
2017,09,03,01,12,20.90
2017,09,03,01,13,20.90
2017,09,03,01,14,20.80
2017,09,03,01,15,20.80
2017,09,03,01,16,20.80
2017,09,03,01,17,20.80
2017,09,03,01,18,20.80
2017,09,03,01,19,20.80
2017,09,03,01,20,20.80
2017,09,03,01,21,20.80
2017,09,03,01,22,20.80
2017,09,03,01,23,20.70
2017,09,03,01,24,20.70
2017,09,03,01,25,20.70
2017,09,03,01,26,20.70
2017,09,03,01,27,20.70
2017,09,03,01,28,20.70
2017,09,03,01,29,20.70
2017,09,03,01,30,20.60
2017,09,03,01,31,20.60
2017,09,03,01,32,20.60
2017,09,03,01,33,20.60
2017,09,03,01,34,20.60
2017,09,03,01,35,20.60
2017,09,03,01,36,20.50
2017,09,03,01,37,20.50
2017,09,03,01,38,20.50
2017,09,03,01,39,20.40
2017,09,03,01,40,20.40
2017,09,03,01,41,20.40
2017,09,03,01,42,20.30
2017,09,03,01,43,20.30
2017,09,03,01,44,20.20
2017,09,03,01,45,20.20
2017,09,03,01,46,20.10
2017,09,03,01,47,20.10
2017,09,03,01,48,20.00
2017,09,03,01,49,20.00
2017,09,03,01,50,19.90
2017,09,03,01,51,19.90
2017,09,03,01,52,19.80
2017,09,03,01,53,19.80
2017,09,03,01,54,19.80
2017,09,03,01,55,19.70
2017,09,03,01,56,19.70
2017,09,03,01,57,19.70
2017,09,03,01,58,19.60
2017,09,03,01,59,19.60
2017,09,03,02,00,19.60
2017,09,03,02,01,19.50
2017,09,03,02,02,19.50
2017,09,03,02,03,19.40
2017,09,03,02,04,19.40
2017,09,03,02,05,19.30
2017,09,03,02,06,19.30
2017,09,03,02,07,19.30
2017,09,03,02,08,19.20
2017,09,03,02,09,19.20
2017,09,03,02,10,19.20
2017,09,03,02,11,19.20
2017,09,03,02,12,19.10
2017,09,03,02,13,19.10
2017,09,03,02,14,19.10
2017,09,03,02,15,19.10
2017,09,03,02,16,19.00
2017,09,03,02,17,19.00
2017,09,03,02,18,18.90
2017,09,03,02,19,18.90
2017,09,03,02,20,18.90
2017,09,03,02,21,18.90
2017,09,03,02,22,18.90
2017,09,03,02,23,18.80
2017,09,03,02,24,18.80
2017,09,03,02,25,18.80
2017,09,03,02,26,18.80
2017,09,03,02,27,18.70
2017,09,03,02,28,18.70
2017,09,03,02,29,18.70
2017,09,03,02,30,18.70
2017,09,03,02,31,18.70
2017,09,03,02,32,18.70
2017,09,03,02,33,18.60
2017,09,03,02,34,18.60
2017,09,03,02,35,18.60
2017,09,03,02,36,18.60
2017,09,03,02,37,18.60
2017,09,03,02,38,18.60
2017,09,03,02,39,18.60
2017,09,03,02,40,18.60
2017,09,03,02,41,18.50
2017,09,03,02,42,18.50
2017,09,03,02,43,18.50
2017,09,03,02,44,18.50
2017,09,03,02,45,18.50
2017,09,03,02,46,18.50
2017,09,03,02,47,18.50
2017,09,03,02,48,18.50
2017,09,03,02,49,18.50
2017,09,03,02,50,18.50
2017,09,03,02,51,18.40
2017,09,03,02,52,18.40
2017,09,03,02,53,18.40
2017,09,03,02,54,18.40
2017,09,03,02,55,18.40
2017,09,03,02,56,18.40
2017,09,03,02,57,18.30
2017,09,03,02,58,18.30
2017,09,03,02,59,18.30
2017,09,03,03,00,18.30
2017,09,03,03,01,18.20
2017,09,03,03,02,18.20
2017,09,03,03,03,18.20
2017,09,03,03,04,18.10
2017,09,03,03,05,18.10
2017,09,03,03,06,18.10
2017,09,03,03,07,18.10
2017,09,03,03,08,18.00
2017,09,03,03,09,18.00
2017,09,03,03,10,17.90
2017,09,03,03,11,17.90
2017,09,03,03,12,17.80
2017,09,03,03,13,17.80
2017,09,03,03,14,17.80
2017,09,03,03,15,17.70
2017,09,03,03,16,17.70
2017,09,03,03,17,17.70
2017,09,03,03,18,17.60
2017,09,03,03,19,17.60
2017,09,03,03,20,17.60
2017,09,03,03,21,17.60
2017,09,03,03,22,17.60
2017,09,03,03,23,17.50
2017,09,03,03,24,17.50
2017,09,03,03,25,17.50
2017,09,03,03,26,17.50
2017,09,03,03,27,17.50
2017,09,03,03,28,17.50
2017,09,03,03,29,17.50
2017,09,03,03,30,17.40
2017,09,03,03,31,17.40
2017,09,03,03,32,17.40
2017,09,03,03,33,17.40
2017,09,03,03,34,17.40
2017,09,03,03,35,17.30
2017,09,03,03,36,17.30
2017,09,03,03,37,17.30
2017,09,03,03,38,17.30
2017,09,03,03,39,17.30
2017,09,03,03,40,17.30
2017,09,03,03,41,17.30
2017,09,03,03,42,17.30
2017,09,03,03,43,17.30
2017,09,03,03,44,17.40
2017,09,03,03,45,17.40
2017,09,03,03,46,17.50
2017,09,03,03,47,17.60
2017,09,03,03,48,17.60
2017,09,03,03,49,17.60
2017,09,03,03,50,17.60
2017,09,03,03,51,17.60
2017,09,03,03,52,17.60
2017,09,03,03,53,17.60
2017,09,03,03,54,17.60
2017,09,03,03,55,17.60
2017,09,03,03,56,17.60
2017,09,03,03,57,17.70
2017,09,03,03,58,17.70
2017,09,03,03,59,17.70
2017,09,03,04,00,17.70
2017,09,03,04,01,17.70
2017,09,03,04,02,17.70
2017,09,03,04,03,17.70
2017,09,03,04,04,17.70
2017,09,03,04,05,17.70
2017,09,03,04,06,17.60
2017,09,03,04,07,17.60
2017,09,03,04,08,17.60
2017,09,03,04,09,17.60
2017,09,03,04,10,17.60
2017,09,03,04,11,17.60
2017,09,03,04,12,17.60
2017,09,03,04,13,17.60
2017,09,03,04,14,17.60
2017,09,03,04,15,17.60
2017,09,03,04,16,17.60
2017,09,03,04,17,17.50
2017,09,03,04,18,17.50
2017,09,03,04,19,17.50
2017,09,03,04,20,17.50
2017,09,03,04,21,17.40
2017,09,03,04,22,17.40
2017,09,03,04,23,17.40
2017,09,03,04,24,17.40
2017,09,03,04,25,17.30
2017,09,03,04,26,17.30
2017,09,03,04,27,17.30
2017,09,03,04,28,17.30
2017,09,03,04,29,17.30
2017,09,03,04,30,17.30
2017,09,03,04,31,17.30
2017,09,03,04,32,17.20
2017,09,03,04,33,17.20
2017,09,03,04,34,17.20
2017,09,03,04,35,17.20
2017,09,03,04,36,17.20
2017,09,03,04,37,17.20
2017,09,03,04,38,17.20
2017,09,03,04,39,17.10
2017,09,03,04,40,17.10
2017,09,03,04,41,17.10
2017,09,03,04,42,17.10
2017,09,03,04,43,17.10
2017,09,03,04,44,17.00
2017,09,03,04,45,17.00
2017,09,03,04,46,17.00
2017,09,03,04,47,17.00
2017,09,03,04,48,17.00
2017,09,03,04,49,16.90
2017,09,03,04,50,16.90
2017,09,03,04,51,16.90
2017,09,03,04,52,16.90
2017,09,03,04,53,16.90
2017,09,03,04,54,16.90
2017,09,03,04,55,16.80
2017,09,03,04,56,16.80
2017,09,03,04,57,16.80
2017,09,03,04,58,16.80
2017,09,03,04,59,16.80
2017,09,03,05,00,16.70
2017,09,03,05,01,16.70
2017,09,03,05,02,16.70
2017,09,03,05,03,16.70
2017,09,03,05,04,16.70
2017,09,03,05,05,16.70
2017,09,03,05,06,16.70
2017,09,03,05,07,16.70
2017,09,03,05,08,16.70
2017,09,03,05,09,16.60
2017,09,03,05,10,16.60
2017,09,03,05,11,16.60
2017,09,03,05,12,16.60
2017,09,03,05,13,16.60
2017,09,03,05,14,16.60
2017,09,03,05,15,16.60
2017,09,03,05,16,16.60
2017,09,03,05,17,16.60
2017,09,03,05,18,16.70
2017,09,03,05,19,16.70
2017,09,03,05,20,16.60
2017,09,03,05,21,16.70
2017,09,03,05,22,16.60
2017,09,03,05,23,16.60
2017,09,03,05,24,16.60
2017,09,03,05,25,16.60
2017,09,03,05,26,16.60
2017,09,03,05,27,16.60
2017,09,03,05,28,16.60
2017,09,03,05,29,16.70
2017,09,03,05,30,16.70
2017,09,03,05,31,16.70
2017,09,03,05,32,16.70
2017,09,03,05,33,16.70
2017,09,03,05,34,16.70
2017,09,03,05,35,16.70
2017,09,03,05,36,16.70
2017,09,03,05,37,16.70
2017,09,03,05,38,16.70
2017,09,03,05,39,16.70
2017,09,03,05,40,16.70
2017,09,03,05,41,16.70
2017,09,03,05,42,16.70
2017,09,03,05,43,16.60
2017,09,03,05,44,16.60
2017,09,03,05,45,16.60
2017,09,03,05,46,16.60
2017,09,03,05,47,16.60
2017,09,03,05,48,16.60
2017,09,03,05,49,16.60
2017,09,03,05,50,16.60
2017,09,03,05,51,16.60
2017,09,03,05,52,16.60
2017,09,03,05,53,16.60
2017,09,03,05,54,16.60
2017,09,03,05,55,16.60
2017,09,03,05,56,16.50
2017,09,03,05,57,16.50
2017,09,03,05,58,16.40
2017,09,03,05,59,16.40
2017,09,03,06,00,16.40
2017,09,03,06,01,16.40
2017,09,03,06,02,16.40
2017,09,03,06,03,16.40
2017,09,03,06,04,16.40
2017,09,03,06,05,16.40
2017,09,03,06,06,16.40
2017,09,03,06,07,16.40
2017,09,03,06,08,16.40
2017,09,03,06,09,16.40
2017,09,03,06,10,16.40
2017,09,03,06,11,16.40
2017,09,03,06,12,16.30
2017,09,03,06,13,16.30
2017,09,03,06,14,16.30
2017,09,03,06,15,16.30
2017,09,03,06,16,16.30
2017,09,03,06,17,16.30
2017,09,03,06,18,16.30
2017,09,03,06,19,16.30
2017,09,03,06,20,16.30
2017,09,03,06,21,16.30
2017,09,03,06,22,16.30
2017,09,03,06,23,16.30
2017,09,03,06,24,16.30
2017,09,03,06,25,16.30
2017,09,03,06,26,16.30
2017,09,03,06,27,16.30
2017,09,03,06,28,16.30
2017,09,03,06,29,16.30
2017,09,03,06,30,16.30
2017,09,03,06,31,16.30
2017,09,03,06,32,16.30
2017,09,03,06,33,16.30
2017,09,03,06,34,16.20
2017,09,03,06,35,16.30
2017,09,03,06,36,16.30
2017,09,03,06,37,16.30
2017,09,03,06,38,16.30
2017,09,03,06,39,16.30
2017,09,03,06,40,16.30
2017,09,03,06,41,16.30
2017,09,03,06,42,16.30
2017,09,03,06,43,16.20
2017,09,03,06,44,16.20
2017,09,03,06,45,16.20
2017,09,03,06,46,16.20
2017,09,03,06,47,16.10
2017,09,03,06,48,16.10
2017,09,03,06,49,16.10
2017,09,03,06,50,16.10
2017,09,03,06,51,16.10
2017,09,03,06,52,16.00
2017,09,03,06,53,16.00
2017,09,03,06,54,16.00
2017,09,03,06,55,16.00
2017,09,03,06,56,16.00
2017,09,03,06,57,16.10
2017,09,03,06,58,16.10
2017,09,03,06,59,16.10
2017,09,03,07,00,16.00
2017,09,03,07,01,16.10
2017,09,03,07,02,16.10
2017,09,03,07,03,16.10
2017,09,03,07,04,16.10
2017,09,03,07,05,16.10
2017,09,03,07,06,16.00
2017,09,03,07,07,16.00
2017,09,03,07,08,16.00
2017,09,03,07,09,16.00
2017,09,03,07,10,16.00
2017,09,03,07,11,16.10
2017,09,03,07,12,16.10
2017,09,03,07,13,16.10
2017,09,03,07,14,16.10
2017,09,03,07,15,16.20
2017,09,03,07,16,16.20
2017,09,03,07,17,16.20
2017,09,03,07,18,16.20
2017,09,03,07,19,16.20
2017,09,03,07,20,16.30
2017,09,03,07,21,16.30
2017,09,03,07,22,16.30
2017,09,03,07,23,16.30
2017,09,03,07,24,16.30
2017,09,03,07,25,16.40
2017,09,03,07,26,16.40
2017,09,03,07,27,16.50
2017,09,03,07,28,16.50
2017,09,03,07,29,16.60
2017,09,03,07,30,16.60
2017,09,03,07,31,16.60
2017,09,03,07,32,16.70
2017,09,03,07,33,16.70
2017,09,03,07,34,16.80
2017,09,03,07,35,16.80
2017,09,03,07,36,16.80
2017,09,03,07,37,16.90
2017,09,03,07,38,17.00
2017,09,03,07,39,17.00
2017,09,03,07,40,17.10
2017,09,03,07,41,17.20
2017,09,03,07,42,17.20
2017,09,03,07,43,17.30
2017,09,03,07,44,17.30
2017,09,03,07,45,17.40
2017,09,03,07,46,17.50
2017,09,03,07,47,17.50
2017,09,03,07,48,17.50
2017,09,03,07,49,17.50
2017,09,03,07,50,17.50
2017,09,03,07,51,17.40
2017,09,03,07,52,17.50
2017,09,03,07,53,17.50
2017,09,03,07,54,17.50
2017,09,03,07,55,17.60
2017,09,03,07,56,17.60
2017,09,03,07,57,17.60
2017,09,03,07,58,17.60
2017,09,03,07,59,17.60
2017,09,03,08,00,17.70
2017,09,03,08,01,17.70
2017,09,03,08,02,17.80
2017,09,03,08,03,17.80
2017,09,03,08,04,17.90
2017,09,03,08,05,17.90
2017,09,03,08,06,18.00
2017,09,03,08,07,18.00
2017,09,03,08,08,18.10
2017,09,03,08,09,18.10
2017,09,03,08,10,18.20
2017,09,03,08,11,18.20
2017,09,03,08,12,18.20
2017,09,03,08,13,18.20
2017,09,03,08,14,18.20
2017,09,03,08,15,18.20
2017,09,03,08,16,18.20
2017,09,03,08,17,18.20
2017,09,03,08,18,18.20
2017,09,03,08,19,18.30
2017,09,03,08,20,18.30
2017,09,03,08,21,18.30
2017,09,03,08,22,18.30
2017,09,03,08,23,18.40
2017,09,03,08,24,18.40
2017,09,03,08,25,18.40
2017,09,03,08,26,18.50
2017,09,03,08,27,18.50
2017,09,03,08,28,18.60
2017,09,03,08,29,18.60
2017,09,03,08,30,18.60
2017,09,03,08,31,18.70
2017,09,03,08,32,18.70
2017,09,03,08,33,18.70
2017,09,03,08,34,18.70
2017,09,03,08,35,18.70
2017,09,03,08,36,18.80
2017,09,03,08,37,18.80
2017,09,03,08,38,18.80
2017,09,03,08,39,18.80
2017,09,03,08,40,18.80
2017,09,03,08,41,18.90
2017,09,03,08,42,18.90
2017,09,03,08,43,18.90
2017,09,03,08,44,19.00
2017,09,03,08,45,19.00
2017,09,03,08,46,19.10
2017,09,03,08,47,19.10
2017,09,03,08,48,19.20
2017,09,03,08,49,19.20
2017,09,03,08,50,19.30
2017,09,03,08,51,19.30
2017,09,03,08,52,19.40
2017,09,03,08,53,19.40
2017,09,03,08,54,19.50
2017,09,03,08,55,19.50
2017,09,03,08,56,19.60
2017,09,03,08,57,19.60
2017,09,03,08,58,19.60
2017,09,03,08,59,19.60
2017,09,03,09,00,19.60
2017,09,03,09,01,19.60
2017,09,03,09,02,19.50
2017,09,03,09,03,19.50
2017,09,03,09,04,19.50
2017,09,03,09,05,19.50
2017,09,03,09,06,19.60
2017,09,03,09,07,19.60
2017,09,03,09,08,19.60
2017,09,03,09,09,19.70
2017,09,03,09,10,19.70
2017,09,03,09,11,19.70
2017,09,03,09,12,19.70
2017,09,03,09,13,19.70
2017,09,03,09,14,19.70
2017,09,03,09,15,19.70
2017,09,03,09,16,19.70
2017,09,03,09,17,19.70
2017,09,03,09,18,19.70
2017,09,03,09,19,19.80
2017,09,03,09,20,19.80
2017,09,03,09,21,19.80
2017,09,03,09,22,19.80
2017,09,03,09,23,19.80
2017,09,03,09,24,19.80
2017,09,03,09,25,19.80
2017,09,03,09,26,19.80
2017,09,03,09,27,19.80
2017,09,03,09,28,19.90
2017,09,03,09,29,19.90
2017,09,03,09,30,19.90
2017,09,03,09,31,19.90
2017,09,03,09,32,19.90
2017,09,03,09,33,19.90
2017,09,03,09,34,20.00
2017,09,03,09,35,20.00
2017,09,03,09,36,20.00
2017,09,03,09,37,20.10
2017,09,03,09,38,20.10
2017,09,03,09,39,20.20
2017,09,03,09,40,20.20
2017,09,03,09,41,20.30
2017,09,03,09,42,20.40
2017,09,03,09,43,20.50
2017,09,03,09,44,20.50
2017,09,03,09,45,20.60
2017,09,03,09,46,20.70
2017,09,03,09,47,20.70
2017,09,03,09,48,20.80
2017,09,03,09,49,20.90
2017,09,03,09,50,21.00
2017,09,03,09,51,21.00
2017,09,03,09,52,21.10
2017,09,03,09,53,21.20
2017,09,03,09,54,21.20
2017,09,03,09,55,21.30
2017,09,03,09,56,21.30
2017,09,03,09,57,21.50
2017,09,03,09,58,21.60
2017,09,03,09,59,21.70
2017,09,03,10,00,21.80
2017,09,03,10,01,21.90
2017,09,03,10,02,22.00
2017,09,03,10,03,22.10
2017,09,03,10,04,22.20
2017,09,03,10,05,22.30
2017,09,03,10,06,22.30
2017,09,03,10,07,22.30
2017,09,03,10,08,22.40
2017,09,03,10,09,22.40
2017,09,03,10,10,22.40
2017,09,03,10,11,22.40
2017,09,03,10,12,22.30
2017,09,03,10,13,22.30
2017,09,03,10,14,22.30
2017,09,03,10,15,22.30
2017,09,03,10,16,22.30
2017,09,03,10,17,22.30
2017,09,03,10,18,22.30
2017,09,03,10,19,22.30
2017,09,03,10,20,22.30
2017,09,03,10,21,22.30
2017,09,03,10,22,22.30
2017,09,03,10,23,22.30
2017,09,03,10,24,22.40
2017,09,03,10,25,22.40
2017,09,03,10,26,22.40
2017,09,03,10,27,22.50
2017,09,03,10,28,22.50
2017,09,03,10,29,22.50
2017,09,03,10,30,22.50
2017,09,03,10,31,22.50
2017,09,03,10,32,22.60
2017,09,03,10,33,22.60
2017,09,03,10,34,22.70
2017,09,03,10,35,22.70
2017,09,03,10,36,22.70
2017,09,03,10,37,22.80
2017,09,03,10,38,22.80
2017,09,03,10,39,22.80
2017,09,03,10,40,22.80
2017,09,03,10,41,22.80
2017,09,03,10,42,22.80
2017,09,03,10,43,22.90
2017,09,03,10,44,22.90
2017,09,03,10,45,23.00
2017,09,03,10,46,23.00
2017,09,03,10,47,23.00
2017,09,03,10,48,23.10
2017,09,03,10,49,23.10
2017,09,03,10,50,23.10
2017,09,03,10,51,23.10
2017,09,03,10,52,23.10
2017,09,03,10,53,23.20
2017,09,03,10,54,23.20
2017,09,03,10,55,23.20
2017,09,03,10,56,23.20
2017,09,03,10,57,23.20
2017,09,03,10,58,23.20
2017,09,03,10,59,23.20
2017,09,03,11,00,23.20
2017,09,03,11,01,23.30
2017,09,03,11,02,23.30
2017,09,03,11,03,23.30
2017,09,03,11,04,23.40
2017,09,03,11,05,23.40
2017,09,03,11,06,23.40
2017,09,03,11,07,23.50
2017,09,03,11,08,23.50
2017,09,03,11,09,23.50
2017,09,03,11,10,23.60
2017,09,03,11,11,23.60
2017,09,03,11,12,23.60
2017,09,03,11,13,23.70
2017,09,03,11,14,23.80
2017,09,03,11,15,23.80
2017,09,03,11,16,23.90
2017,09,03,11,17,23.90
2017,09,03,11,18,23.90
2017,09,03,11,19,24.00
2017,09,03,11,20,24.00
2017,09,03,11,21,24.10
2017,09,03,11,22,24.10
2017,09,03,11,23,24.30
2017,09,03,11,24,24.40
2017,09,03,11,25,24.40
2017,09,03,11,26,24.50
2017,09,03,11,27,24.60
2017,09,03,11,28,24.70
2017,09,03,11,29,24.80
2017,09,03,11,30,24.90
2017,09,03,11,31,25.00
2017,09,03,11,32,25.10
2017,09,03,11,33,25.20
2017,09,03,11,34,25.20
2017,09,03,11,35,25.30
2017,09,03,11,36,25.30
2017,09,03,11,37,25.30
2017,09,03,11,38,25.30
2017,09,03,11,39,25.30
2017,09,03,11,40,25.30
2017,09,03,11,41,25.40
2017,09,03,11,42,25.40
2017,09,03,11,43,25.50
2017,09,03,11,44,25.60
2017,09,03,11,45,25.60
2017,09,03,11,46,25.60
2017,09,03,11,47,25.60
2017,09,03,11,48,25.70
2017,09,03,11,49,25.70
2017,09,03,11,50,25.70
2017,09,03,11,51,25.80
2017,09,03,11,52,25.80
2017,09,03,11,53,25.80
2017,09,03,11,54,25.80
2017,09,03,11,55,25.80
2017,09,03,11,56,25.80
2017,09,03,11,57,25.80
2017,09,03,11,58,25.90
2017,09,03,11,59,25.90
2017,09,03,12,00,25.90
2017,09,03,12,01,26.00
2017,09,03,12,02,26.00
2017,09,03,12,03,26.10
2017,09,03,12,04,26.10
2017,09,03,12,05,26.10
2017,09,03,12,06,26.10
2017,09,03,12,07,26.10
2017,09,03,12,08,26.10
2017,09,03,12,09,26.10
2017,09,03,12,10,26.10
2017,09,03,12,11,26.10
2017,09,03,12,12,26.10
2017,09,03,12,13,26.20
2017,09,03,12,14,26.20
2017,09,03,12,15,26.30
2017,09,03,12,16,26.30
2017,09,03,12,17,26.30
2017,09,03,12,18,26.20
2017,09,03,12,19,26.20
2017,09,03,12,20,26.20
2017,09,03,12,21,26.20
2017,09,03,12,22,26.10
2017,09,03,12,23,26.10
2017,09,03,12,24,26.20
2017,09,03,12,25,26.20
2017,09,03,12,26,26.20
2017,09,03,12,27,26.20
2017,09,03,12,28,26.20
2017,09,03,12,29,26.30
2017,09,03,12,30,26.40
2017,09,03,12,31,26.50
2017,09,03,12,32,26.50
2017,09,03,12,33,26.50
2017,09,03,12,34,26.50
2017,09,03,12,35,26.40
2017,09,03,12,36,26.40
2017,09,03,12,37,26.40
2017,09,03,12,38,26.30
2017,09,03,12,39,26.30
2017,09,03,12,40,26.30
2017,09,03,12,41,26.30
2017,09,03,12,42,26.30
2017,09,03,12,43,26.30
2017,09,03,12,44,26.30
2017,09,03,12,45,26.40
2017,09,03,12,46,26.50
2017,09,03,12,47,26.60
2017,09,03,12,48,26.80
2017,09,03,12,49,26.90
2017,09,03,12,50,27.00
2017,09,03,12,51,27.10
2017,09,03,12,52,27.20
2017,09,03,12,53,27.30
2017,09,03,12,54,27.30
2017,09,03,12,55,27.30
2017,09,03,12,56,27.20
2017,09,03,12,57,27.10
2017,09,03,12,58,27.10
2017,09,03,12,59,27.00
2017,09,03,13,00,26.90
2017,09,03,13,01,26.90
2017,09,03,13,02,26.90
2017,09,03,13,03,26.90
2017,09,03,13,04,27.00
2017,09,03,13,05,27.00
2017,09,03,13,06,27.10
2017,09,03,13,07,27.10
2017,09,03,13,08,27.00
2017,09,03,13,09,27.00
2017,09,03,13,10,27.00
2017,09,03,13,11,26.90
2017,09,03,13,12,26.90
2017,09,03,13,13,26.90
2017,09,03,13,14,26.90
2017,09,03,13,15,26.80
2017,09,03,13,16,26.90
2017,09,03,13,17,26.90
2017,09,03,13,18,26.90
2017,09,03,13,19,26.90
2017,09,03,13,20,26.90
2017,09,03,13,21,26.90
2017,09,03,13,22,26.90
2017,09,03,13,23,27.00
2017,09,03,13,24,27.10
2017,09,03,13,25,27.20
2017,09,03,13,26,27.30
2017,09,03,13,27,27.50
2017,09,03,13,28,27.60
2017,09,03,13,29,27.70
2017,09,03,13,30,27.80
2017,09,03,13,31,28.00
2017,09,03,13,32,28.20
2017,09,03,13,33,28.30
2017,09,03,13,34,28.40
2017,09,03,13,35,28.40
2017,09,03,13,36,28.50
2017,09,03,13,37,28.50
2017,09,03,13,38,28.50
2017,09,03,13,39,28.50
2017,09,03,13,40,28.50
2017,09,03,13,41,28.50
2017,09,03,13,42,28.60
2017,09,03,13,43,28.70
2017,09,03,13,44,28.70
2017,09,03,13,45,28.80
2017,09,03,13,46,28.80
2017,09,03,13,47,28.90
2017,09,03,13,48,28.90
2017,09,03,13,49,29.00
2017,09,03,13,50,29.10
2017,09,03,13,51,29.20
2017,09,03,13,52,29.30
2017,09,03,13,53,29.20
2017,09,03,13,54,29.20
2017,09,03,13,55,29.20
2017,09,03,13,56,29.20
2017,09,03,13,57,29.30
2017,09,03,13,58,29.30
2017,09,03,13,59,29.30
2017,09,03,14,00,29.30
2017,09,03,14,01,29.30
2017,09,03,14,02,29.30
2017,09,03,14,03,29.30
2017,09,03,14,04,29.20
2017,09,03,14,05,29.20
2017,09,03,14,06,29.10
2017,09,03,14,07,29.10
2017,09,03,14,08,29.20
2017,09,03,14,09,29.20
2017,09,03,14,10,29.30
2017,09,03,14,11,29.30
2017,09,03,14,12,29.40
2017,09,03,14,13,29.40
2017,09,03,14,14,29.40
2017,09,03,14,15,29.50
2017,09,03,14,16,29.50
2017,09,03,14,17,29.60
2017,09,03,14,18,29.60
2017,09,03,14,19,29.60
2017,09,03,14,20,29.60
2017,09,03,14,21,29.60
2017,09,03,14,22,29.60
2017,09,03,14,23,29.60
2017,09,03,14,24,29.60
2017,09,03,14,25,29.70
2017,09,03,14,26,29.80
2017,09,03,14,27,29.80
2017,09,03,14,28,29.90
2017,09,03,14,29,29.90
2017,09,03,14,30,29.90
2017,09,03,14,31,30.00
2017,09,03,14,32,30.00
2017,09,03,14,33,29.90
2017,09,03,14,34,29.90
2017,09,03,14,35,29.90
2017,09,03,14,36,29.90
2017,09,03,14,37,29.90
2017,09,03,14,38,29.90
2017,09,03,14,39,29.90
2017,09,03,14,40,29.90
2017,09,03,14,41,29.90
2017,09,03,14,42,29.80
2017,09,03,14,43,29.80
2017,09,03,14,44,29.80
2017,09,03,14,45,29.80
2017,09,03,14,46,29.80
2017,09,03,14,47,29.80
2017,09,03,14,48,29.90
2017,09,03,14,49,29.90
2017,09,03,14,50,29.90
2017,09,03,14,51,29.90
2017,09,03,14,52,29.90
2017,09,03,14,53,29.90
2017,09,03,14,54,30.00
2017,09,03,14,55,30.00
2017,09,03,14,56,30.00
2017,09,03,14,57,29.90
2017,09,03,14,58,29.90
2017,09,03,14,59,29.90
2017,09,03,15,00,29.90
2017,09,03,15,01,29.90
2017,09,03,15,02,29.90
2017,09,03,15,03,29.90
2017,09,03,15,04,29.90
2017,09,03,15,05,29.90
2017,09,03,15,06,29.90
2017,09,03,15,07,29.90
2017,09,03,15,08,29.80
2017,09,03,15,09,29.80
2017,09,03,15,10,29.80
2017,09,03,15,11,29.80
2017,09,03,15,12,29.70
2017,09,03,15,13,29.70
2017,09,03,15,14,29.70
2017,09,03,15,15,29.70
2017,09,03,15,16,29.80
2017,09,03,15,17,29.80
2017,09,03,15,18,29.80
2017,09,03,15,19,29.90
2017,09,03,15,20,29.90
2017,09,03,15,21,29.90
2017,09,03,15,22,30.00
2017,09,03,15,23,30.10
2017,09,03,15,24,30.10
2017,09,03,15,25,30.30
2017,09,03,15,26,30.30
2017,09,03,15,27,30.30
2017,09,03,15,28,30.30
2017,09,03,15,29,30.30
2017,09,03,15,30,30.40
2017,09,03,15,31,30.40
2017,09,03,15,32,30.40
2017,09,03,15,33,30.40
2017,09,03,15,34,30.40
2017,09,03,15,35,30.40
2017,09,03,15,36,30.40
2017,09,03,15,37,30.50
2017,09,03,15,38,30.50
2017,09,03,15,39,30.60
2017,09,03,15,40,30.60
2017,09,03,15,41,30.60
2017,09,03,15,42,30.70
2017,09,03,15,43,30.80
2017,09,03,15,44,30.80
2017,09,03,15,45,30.90
2017,09,03,15,46,30.90
2017,09,03,15,47,30.90
2017,09,03,15,48,30.90
2017,09,03,15,49,31.00
2017,09,03,15,50,31.10
2017,09,03,15,51,31.10
2017,09,03,15,52,31.20
2017,09,03,15,53,31.20
2017,09,03,15,54,31.30
2017,09,03,15,55,31.20
2017,09,03,15,56,31.20
2017,09,03,15,57,31.20
2017,09,03,15,58,31.10
2017,09,03,15,59,31.10
2017,09,03,16,00,31.10
2017,09,03,16,01,31.10
2017,09,03,16,02,31.10
2017,09,03,16,03,31.10
2017,09,03,16,04,31.10
2017,09,03,16,05,31.10
2017,09,03,16,06,31.00
2017,09,03,16,07,31.00
2017,09,03,16,08,31.00
2017,09,03,16,09,31.10
2017,09,03,16,10,31.10
2017,09,03,16,11,31.10
2017,09,03,16,12,31.00
2017,09,03,16,13,31.00
2017,09,03,16,14,31.00
2017,09,03,16,15,31.00
2017,09,03,16,16,31.10
2017,09,03,16,17,31.10
2017,09,03,16,18,31.10
2017,09,03,16,19,31.10
2017,09,03,16,20,31.10
2017,09,03,16,21,31.10
2017,09,03,16,22,31.10
2017,09,03,16,23,31.10
2017,09,03,16,24,31.10
2017,09,03,16,25,31.20
2017,09,03,16,26,31.20
2017,09,03,16,27,31.30
2017,09,03,16,28,31.30
2017,09,03,16,29,31.30
2017,09,03,16,30,31.30
2017,09,03,16,31,31.30
2017,09,03,16,32,31.30
2017,09,03,16,33,31.30
2017,09,03,16,34,31.30
2017,09,03,16,35,31.30
2017,09,03,16,36,31.30
2017,09,03,16,37,31.30
2017,09,03,16,38,31.30
2017,09,03,16,39,31.30
2017,09,03,16,40,31.40
2017,09,03,16,41,31.40
2017,09,03,16,42,31.40
2017,09,03,16,43,31.30
2017,09,03,16,44,31.30
2017,09,03,16,45,31.30
2017,09,03,16,46,31.20
2017,09,03,16,47,31.20
2017,09,03,16,48,31.20
2017,09,03,16,49,31.20
2017,09,03,16,50,31.20
2017,09,03,16,51,31.10
2017,09,03,16,52,31.10
2017,09,03,16,53,31.10
2017,09,03,16,54,31.10
2017,09,03,16,55,31.10
2017,09,03,16,56,31.20
2017,09,03,16,57,31.20
2017,09,03,16,58,31.20
2017,09,03,16,59,31.20
2017,09,03,17,00,31.20
2017,09,03,17,01,31.20
2017,09,03,17,02,31.20
2017,09,03,17,03,31.20
2017,09,03,17,04,31.10
2017,09,03,17,05,31.20
2017,09,03,17,06,31.20
2017,09,03,17,07,31.20
2017,09,03,17,08,31.10
2017,09,03,17,09,31.10
2017,09,03,17,10,31.10
2017,09,03,17,11,31.00
2017,09,03,17,12,30.90
2017,09,03,17,13,30.90
2017,09,03,17,14,30.80
2017,09,03,17,15,30.80
2017,09,03,17,16,30.80
2017,09,03,17,17,30.80
2017,09,03,17,18,30.80
2017,09,03,17,19,30.80